Home   Weather   Hamilton   Past weeks

Flag for Bermuda Past Weather in Hamilton, Bermuda — Yesterday and Last 2 Weeks

Now
81 °F

Scattered showers. Partly cloudy.


Feels Like: 85 °F
Forecast: 78 / 83 °F
Wind: 9 mph from Northwest

Location: Bermuda

Current Time: Sep 25, 2016 at 2:37:57 AM

Latest Report: Sep 25, 2016 at 1:55 AM


Visibility: N/A

Pressure: 29.89 "Hg

Humidity: 79%

Dew Point: 73 °F

Location of HamiltonLocation

Past Weather in Hamilton — Graph

°F

Hamilton Temperature Yesterday

Maximum temperature yesterday: 84 °F (at 1:55 PM)
Minimum temperature yesterday: 75 °F (at 5:55 AM)
Average temperature yesterday: 80 °F

High & Low Weather Summary for the Past Weeks

 TemperatureHumidityPressure
High88 °F (Sep 10, 12:55 PM)94% (Sep 21, 8:55 AM)30.21 "Hg (Sep 21, 8:55 AM)
Low75 °F (Sep 21, 5:55 PM)55% (Sep 15, 1:55 PM)29.56 "Hg (Sep 24, 5:55 AM)
Average81 °F75%30.06 "Hg
* Reported Sep 10 12:55 AM — Sep 25 12:55 AM, Hamilton, Weather by CustomWeather, © 2016

Note: Actual official high and low records may vary slightly from our data, if they occured in-between our weather recording intervals... More about our weather records

Advertising

Hamilton Weather History for the Previous 24 Hours

Scroll right to see more
 ConditionsComfort  
Time TempWeatherWind HumidityBarometerVisibility
12:55 AM
Sun, Sep 25
79 °FScattered showers. Partly cloudy.15 mph79%29.89 "HgN/A
11:55 PM
Sat, Sep 24
79 °FScattered showers. Partly cloudy.12 mph84%29.89 "HgN/A
10:55 PM81 °FPartly cloudy.16 mph79%29.89 "HgN/A
9:55 PM81 °FScattered showers. Passing clouds.16 mph79%29.89 "HgN/A
8:55 PM82 °FPassing clouds.16 mph74%29.86 "HgN/A
7:55 PM82 °FScattered showers. Partly cloudy.21 mph74%29.86 "HgN/A
5:55 PM82 °FBroken clouds.18 mph79%29.83 "HgN/A
4:55 PM82 °FScattered showers. Broken clouds.20 mph79%29.80 "HgN/A
3:55 PM82 °FPartly sunny.24 mph79%29.80 "HgN/A
2:55 PM82 °FBroken clouds.22 mph79%29.80 "HgN/A
1:55 PM84 °FBroken clouds.25 mph70%29.77 "HgN/A
12:55 PM82 °FBroken clouds.29 mph74%29.74 "HgN/A
11:55 AM82 °FScattered showers. Broken clouds.28 mph79%29.74 "HgN/A
10:55 AM82 °FScattered showers. Broken clouds.28 mph79%29.74 "HgN/A
9:55 AM81 °FScattered showers. Broken clouds.23 mph84%29.68 "HgN/A
8:55 AM79 °FSprinkles. Fog.26 mph89%29.65 "Hg6 mi
7:55 AM77 °FSprinkles. Fog.25 mph94%29.59 "Hg4 mi
6:55 AM77 °FStrong thunderstorms. Overcast.26 mph94%29.59 "Hg1 mi
5:55 AM75 °FStrong thunderstorms. Overcast.28 mph94%29.56 "Hg1 mi
4:55 AM77 °FThunderstorms. Overcast.23 mph94%29.59 "Hg2 mi
3:55 AM79 °FThunderstorms. Mostly cloudy.16 mph89%29.62 "Hg6 mi
2:55 AM79 °FSprinkles. Overcast.18 mph89%29.68 "Hg6 mi
Weather by CustomWeather, © 2016

See weather overviewHow to use our weather pages